Tracking 19176 objects as of 26-May-2018
HD Live streaming from Space Station
objects crossing your sky now

FENGYUN 1C DEB

Track FENGYUN 1C DEB now!
10-day predictions


NORAD ID: 30552
Int'l Code: 1999-025AKS
Perigee: 817.0 km
Apogee: 844.7 km
Inclination: 98.9 °
Period: 101.4 minutes
Semi major axis: 7201 km
RCS: 0.0144 m2 (small)
Launch date: May 10, 1999
Source: People's Republic of China (PRC)
Launch site: Taiyaun Space Center, China (TSC)

Note: This is SATELLITE DEBRIS
aabbcc
Your satellite tracking list
Your tracking list is empty




NASA's NSSDC Master Catalog

Two Line Element Set (TLE):
1 30552U 99025AKS 18145.37865918 +.00000741 +00000-0 +36546-3 0  9995
2 30552 098.8980 204.4843 0019251 356.0533 062.0412 14.20489950582830
Source of the keplerian elements: AFSPC